This is the latest recevied weather packets stored in our database for station/object CA3EVY-3. If no packets are shown the sender has not sent any weather packets the latest 10 day(s).
| Time | Temp. | Humidity | Pressure | Rain* | Wind** | Luminosity | Snow |
|---|---|---|---|---|---|---|---|
| 1788092104 | 9.44° C | 59% | 917.5 hPa | - | - | - | - |
| 1788091204 | 9.44° C | 61% | 917.4 hPa | - | - | - | - |
| 1788089403 | 9.44° C | 60% | 917.2 hPa | - | - | - | - |
| 1788088504 | 9.44° C | 60% | 917 hPa | - | - | - | - |
| 1788087603 | 10° C | 60% | 916.8 hPa | - | - | - | - |
| 1788086704 | 10° C | 60% | 916.5 hPa | - | - | - | - |
| 1788085803 | 10° C | 59% | 916.5 hPa | - | - | - | - |
| 1788084903 | 10° C | 59% | 916.3 hPa | - | - | - | - |
| 1788084003 | 10° C | 60% | 916.3 hPa | - | - | - | - |
| 1788083104 | 10° C | 60% | 916.2 hPa | - | - | - | - |
| 1788082203 | 10° C | 60% | 916 hPa | - | - | - | - |
| 1788081303 | 10° C | 60% | 916 hPa | - | - | - | - |
| 1788080405 | 10° C | 59% | 915.9 hPa | - | - | - | - |
| 1788079520 | 10° C | 59% | 915.9 hPa | - | - | - | - |
| 1788078604 | 10.56° C | 59% | 915.7 hPa | - | - | - | - |
| 1788077703 | 10.56° C | 59% | 915.6 hPa | - | - | - | - |
| 1788076804 | 11.11° C | 59% | 915.6 hPa | - | - | - | - |
| 1788075903 | 11.11° C | 59% | 915.5 hPa | - | - | - | - |
| 1788075004 | 11.11° C | 58% | 915.5 hPa | - | - | - | - |
| 1788074104 | 11.11° C | 58% | 915.6 hPa | - | - | - | - |
| 1788073205 | 11.67° C | 56% | 915.6 hPa | - | - | - | - |
| 1788072303 | 11.67° C | 56% | 915.6 hPa | - | - | - | - |
| 1788071404 | 11.67° C | 52% | 915.7 hPa | - | - | - | - |
| 1788070503 | 11.67° C | 52% | 915.8 hPa | - | - | - | - |
| 1788069604 | 12.22° C | 51% | 915.9 hPa | - | - | - | - |
* Rain since midnight (hover to see other rain measurements)
** Current wind speed in m/s (hover to see current wind gust speed)